Location: *
(38.3914°N, 75.0697°W)
Time: 02:36:50
(UTC+00:00)

Cosmos 1603 - Pass Details

Date: 17 February 2020
Orbit: 833 x 858 km, 71.0° (Epoch: 05 April)

Event Time Altitude Azimuth Distance (km) Brightness Sun altitude
Rises 09:53:43 0° 193° (SSW) 3,412 6.7 -23.2°
Reaches altitude 10° 09:56:10 10° 191° (S) 2,477 6.0 -22.7°
Maximum altitude 10:01:49 69° 109° (ESE) 912 4.0 -21.6°
Drops below altitude 10° 10:07:28 10° 28° (NNE) 2,478 6.5 -20.5°
Sets 10:09:56 0° 26° (NNE) 3,413 7.2 -20.0°
